Home   Weather   Tucson   Past weeks

Flag for USA Past Weather in Tucson, Arizona, USA — Yesterday and Last 2 Weeks

Now
78 °F

Partly sunny.


Feels Like: 80 °F
Forecast: 75 / 98 °F
Wind: No wind

Location: Davis-Monthan Air Force Base

Current Time: Jul 26, 2017 at 8:01:54 am

Latest Report: Jul 26, 2017 at 6:58 am


Visibility: 10 mi

Pressure: 29.96 "Hg (27.47 "Hg at 758m altitude)

Humidity: 75%

Dew Point: 69 °F

Location of TucsonLocation

Past Weather in Tucson — Graph

°F

Tucson Temperature Yesterday

Maximum temperature yesterday: 97 °F (at 2:58 pm)
Minimum temperature yesterday: 73 °F (at 5:58 am)
Average temperature yesterday: 85 °F

High & Low Weather Summary for the Past Weeks

 TemperatureHumidityPressure
High102 °F (Jul 15, 3:58 pm)100% (Jul 11, 5:58 am)29.99 "Hg (Jul 11, 5:58 am)
Low70 °F (Jul 15, 11:09 pm)22% (Jul 12, 4:06 pm)29.75 "Hg (Jul 12, 4:06 pm)
Average82 °F65%29.88 "Hg
* Reported Jul 11 5:58 am — Jul 26 5:58 am, Tucson. Weather by CustomWeather, © 2017

Note: Actual official high and low records may vary slightly from our data, if they occured in-between our weather recording intervals... More about our weather records

Advertising

Tucson Weather History for the Previous 24 Hours

Scroll right to see more
 ConditionsComfort  
Time TempWeatherWind HumidityBarometerVisibility
5:58 am
Wed, Jul 26
76 °FOvercast.5 mph76%29.96 "Hg10 mi
4:58 am75 °FPassing clouds.3 mph74%29.93 "Hg10 mi
3:58 am76 °FClear.5 mph70%29.91 "Hg10 mi
2:58 am78 °FOvercast.7 mph65%29.91 "Hg10 mi
1:58 am78 °FPassing clouds.6 mph65%29.91 "Hg10 mi
12:58 am80 °FClear.6 mph58%29.90 "Hg10 mi
11:58 pm
Tue, Jul 25
81 °FClear.7 mph61%29.90 "Hg10 mi
10:58 pm82 °FClear.5 mph62%29.90 "Hg10 mi
9:58 pm84 °FClear.No wind57%29.88 "Hg10 mi
8:58 pm86 °FClear.No wind47%29.89 "Hg10 mi
7:58 pm89 °FClear.5 mph42%29.87 "Hg10 mi
6:58 pm92 °FSunny.6 mph35%29.86 "Hg10 mi
5:58 pm95 °FSunny.6 mph33%29.85 "Hg10 mi
4:58 pm97 °FSunny.6 mph31%29.86 "Hg10 mi
3:58 pm97 °FScattered clouds.10 mph32%29.87 "Hg10 mi
2:58 pm97 °FSunny.5 mph30%29.88 "Hg10 mi
1:58 pm97 °FSunny.3 mph33%29.89 "Hg10 mi
12:58 pm95 °FSunny.3 mph34%29.91 "Hg10 mi
11:58 am92 °FPassing clouds.5 mph37%29.92 "Hg10 mi
10:58 am90 °FSunny.3 mph44%29.94 "Hg10 mi
9:58 am88 °FSunny.5 mph50%29.95 "Hg10 mi
8:58 am85 °FSunny.5 mph58%29.94 "Hg10 mi
Weather by CustomWeather, © 2017

See weather overviewHow to use our weather pages